Home   Weather   Toowoomba   Past weeks

Flag for Australia Past Weather in Toowoomba, Queensland, Australia — Yesterday and Last 2 Weeks

Now
78 °F

Pleasantly warm.


Feels Like: 79 °F
Forecast: 58 / 72 °F
Wind: 7 mph from Northeast

Location: Oakey Aerodrome

Current Time: Apr 25, 2017 at 3:01:15 pm

Latest Report: Apr 25, 2017 at 1:00 pm


Visibility: N/A

Pressure: 29.98 "Hg (28.00 "Hg at 597m altitude)

Humidity: 39%

Dew Point: 51 °F

Location of ToowoombaLocation

Past Weather in Toowoomba — Graph

°F

Toowoomba Temperature Yesterday

Maximum temperature yesterday: 76 °F (at 3:00 pm)
Minimum temperature yesterday: 54 °F (at 7:00 am)
Average temperature yesterday: 64 °F

High & Low Weather Summary for the Past Weeks

 TemperatureHumidityPressure
High78 °F (Apr 12, 4:00 pm)98% (Apr 14, 4:00 am)30.30 "Hg (Apr 14, 4:00 am)
Low41 °F (Apr 11, 6:00 am)23% (Apr 10, 4:00 pm)29.84 "Hg (Apr 10, 3:00 pm)
Average64 °F71%30.13 "Hg
* Reported Apr 10 1:00 pm — Apr 25 1:00 pm, Toowoomba, Weather by CustomWeather, © 2017

Note: Actual official high and low records may vary slightly from our data, if they occured in-between our weather recording intervals... More about our weather records

Advertising

Toowoomba Weather History for the Previous 24 Hours

Scroll right to see more
 ConditionsComfort  
Time TempWeatherWind HumidityBarometerVisibility
1:00 pm
Tue, Apr 25
78 °FPleasantly warm.7 mph39%29.98 "HgN/A
12:00 pm76 °FMild.7 mph43%30.03 "HgN/A
10:00 am71 °FMild.10 mph55%30.09 "HgN/A
9:00 am69 °FMild.9 mph68%30.09 "HgN/A
7:00 am58 °FCool.6 mph97%30.07 "HgN/A
6:00 am54 °FCool.8 mph95%30.06 "Hg5 mi
4:00 am57 °FCool.8 mph95%30.04 "HgN/A
3:00 am58 °FCool.12 mph95%30.05 "HgN/A
1:00 am57 °FCool.6 mph93%30.08 "HgN/A
12:00 am55 °FCool.7 mph89%30.09 "HgN/A
10:00 pm
Mon, Apr 24
59 °FCool.No wind81%30.12 "HgN/A
9:00 pm57 °FCool.7 mph80%30.12 "HgN/A
7:00 pm60 °FCool.8 mph72%30.09 "HgN/A
6:00 pm65 °FMild.8 mph62%30.08 "HgN/A
4:00 pm74 °FMild.10 mph42%30.05 "HgN/A
3:00 pm76 °FMild.10 mph41%30.05 "HgN/A
Weather by CustomWeather, © 2017

See weather overviewHow to use our weather pages